H1 CPF 2 NER 2024 8 23 9 236 01 glonass144 H2 2207501 9144 52984 2024 8 23 0 0 0 2024 8 26 23 45 0 900 1 1 0 0 0 1 H9 10 0 60545 0.00000 0 21815884.897 -3739523.449 -12649110.283 10 0 60545 900.00000 0 23214021.809 -3769160.486 -9846882.013 10 0 60545 1800.00000 0 24249217.348 -3901518.849 -6853098.431 10 0 60545 2700.00000 0 24895783.908 -4085217.596 -3726039.093 10 0 60545 3600.00000 0 25140925.904 -4265572.267 -526540.531 10 0 60545 4500.00000 0 24985190.825 -4387148.868 2683194.469 10 0 60545 5400.00000 0 24442377.857 -4396351.142 5840811.292 10 0 60545 6300.00000 0 23538909.337 -4243930.733 8885017.319 10 0 60545 7200.00000 0 22312693.044 -3887313.589 11756771.033 10 0 60545 8100.00000 0 20811524.367 -3292643.999 14400423.250 10 0 60545 9000.00000 0 19091096.570 -2436460.049 16764788.585 10 0 60545 9900.00000 0 17212703.355 -1306930.058 18804126.980 10 0 60545 10800.00000 0 15240730.160 95401.840 20479017.279 10 0 60545 11700.00000 0 13240038.900 1757392.153 21757107.205 10 0 60545 12600.00000 0 11273354.659 3653606.035 22613726.560 10 0 60545 13500.00000 0 9398762.183 5747144.399 23032353.195 10 0 60545 14400.00000 0 7667414.989 7990956.459 23004923.941 10 0 60545 15300.00000 0 6121550.877 10329584.168 22531985.424 10 0 60545 16200.00000 0 4792894.776 12701267.440 21622682.381 10 0 60545 17100.00000 0 3701513.844 15040324.364 20294583.781 10 0 60545 18000.00000 0 2855171.285 17279709.159 18573349.759 10 0 60545 18900.00000 0 2249204.834 19353643.295 16492244.987 10 0 60545 19800.00000 0 1866934.403 21200211.787 14091506.799 10 0 60545 20700.00000 0 1680581.625 22763817.698 11417579.007 10 0 60545 21600.00000 0 1652662.763 23997393.239 8522224.880 10 0 60545 22500.00000 0 1737796.756 24864275.429 5461535.174 10 0 60545 23400.00000 0 1884852.575 25339667.651 2294849.433 10 0 60545 24300.00000 0 2039345.601 25411625.314 -916389.282 10 0 60545 25200.00000 0 2145981.835 25081523.384 -4109824.436 10 0 60545 26100.00000 0 2151242.128 24363985.076 -7223397.708 10 0 60545 27000.00000 0 2005896.446 23286273.558 -10196558.527 10 0 60545 27900.00000 0 1667340.759 21887171.158 -12971447.381 10 0 60545 28800.00000 0 1101656.279 20215392.309 -15494029.160 10 0 60545 29700.00000 0 285302.287 18327596.257 -17715153.649 10 0 60545 30600.00000 0 -793630.884 16286082.641 -19591521.749 10 0 60545 31500.00000 0 -2134663.576 14156266.567 -21086537.808 10 0 60545 32400.00000 0 -3724697.177 12004039.209 -22171030.848 10 0 60545 33300.00000 0 -5538324.686 9893124.785 -22823830.103 10 0 60545 34200.00000 0 -7538670.022 7882544.958 -23032183.247 10 0 60545 35100.00000 0 -9678722.199 6024297.021 -22792008.872 10 0 60545 36000.00000 0 -11903109.471 4361343.148 -22107978.120 10 0 60545 36900.00000 0 -14150239.701 2925994.728 -20993423.745 10 0 60545 37800.00000 0 -16354717.728 1738758.981 -19470078.329 10 0 60545 38700.00000 0 -18449938.517 807695.372 -17567646.850 10 0 60545 39600.00000 0 -20370747.365 128307.718 -15323222.033 10 0 60545 40500.00000 0 -22056055.450 -316024.962 -12780554.235 10 0 60545 41400.00000 0 -23451300.818 -553098.683 -9989190.489 10 0 60545 42300.00000 0 -24510651.452 -620457.701 -7003500.144 10 0 60545 43200.00000 0 -25198857.975 -563552.843 -3881606.846 10 0 60545 44100.00000 0 -25492678.471 -433564.609 -684248.509 10 0 60545 45000.00000 0 -25381816.150 -284984.858 2526411.586 10 0 60545 45900.00000 0 -24869331.255 -173060.836 5687998.570 10 0 60545 46800.00000 0 -23971511.089 -151210.879 8739140.346 10 0 60545 47700.00000 0 -22717204.800 -268521.858 11620658.430 10 0 60545 48600.00000 0 -21146652.087 -567434.595 14276712.011 10 0 60545 49500.00000 0 -19309856.018 -1081715.041 16655873.304 10 0 60545 50400.00000 0 -17264568.863 -1834796.650 18712113.914 10 0 60545 51300.00000 0 -15073975.616 -2838563.465 20405684.121 10 0 60545 52200.00000 0 -12804171.851 -4092624.778 21703869.267 10 0 60545 53100.00000 0 -10521540.556 -5584111.703 22581609.978 10 0 60545 54000.00000 0 -8290136.180 -7288004.336 23021975.599 10 0 60545 54900.00000 0 -6169183.287 -9167976.335 23016482.926 10 0 60545 55800.00000 0 -4210792.224 -11177722.563 22565254.978 10 0 60545 56700.00000 0 -2457984.937 -13262715.672 21677017.328 10 0 60545 57600.00000 0 -943111.282 -15362320.000 20368932.139 10 0 60545 58500.00000 0 313279.808 -17412176.390 18666272.774 10 0 60545 59400.00000 0 1303068.583 -19346760.321 16601944.508 10 0 60545 60300.00000 0 2030666.881 -21102008.291 14215859.519 10 0 60545 61200.00000 0 2512590.911 -22617904.192 11554176.959 10 0 60545 62100.00000 0 2776522.575 -23840918.539 8668421.496 10 0 60545 63000.00000 0 2859898.632 -24726199.003 5614496.076 10 0 60545 63900.00000 0 2808086.883 -25239420.442 2451607.032 10 0 60545 64800.00000 0 2672225.976 -25358216.300 -758878.412 10 0 60545 65700.00000 0 2506819.936 -25073130.407 -3954620.508 10 0 60545 66600.00000 0 2367189.138 -24388047.922 -7073518.156 10 0 60545 67500.00000 0 2306886.008 -23320085.969 -10054919.109 10 0 60545 68400.00000 0 2375185.537 -21898947.176 -12840805.136 10 0 60545 69300.00000 0 2614757.939 -20165762.013 -15376928.368 10 0 60545 70200.00000 0 3059623.319 -18171467.544 -17613875.879 10 0 60545 71100.00000 0 3733476.466 -15974789.856 -19508041.026 10 0 60545 72000.00000 0 4648454.332 -13639914.353 -21022481.790 10 0 60545 72900.00000 0 5804400.007 -11233941.341 -22127648.800 10 0 60545 73800.00000 0 7188655.985 -8824233.417 -22801968.329 10 0 60545 74700.00000 0 8776397.006 -6475765.817 -23032268.455 10 0 60545 75600.00000 0 10531489.832 -4248590.634 -22814039.820 10 0 60545 76500.00000 0 12407844.918 -2195520.970 -22151525.688 10 0 60545 77400.00000 0 14351203.942 -360131.739 -21057639.416 10 0 60545 78300.00000 0 16301288.589 1224839.677 -19553710.916 10 0 60545 79200.00000 0 18194220.558 2538626.691 -17669067.094 10 0 60545 80100.00000 0 19965111.084 3573054.244 -15440454.584 10 0 60545 81000.00000 0 21550710.933 4332622.373 -12911316.380 10 0 60545 81900.00000 0 22892009.292 4834050.805 -10130936.848 10 0 60545 82800.00000 0 23936671.950 5105305.669 -7153472.470 10 0 60545 83700.00000 0 24641216.065 5184151.363 -4036887.941 10 0 60545 84600.00000 0 24972830.098 5116290.778 -841819.206 10 0 60545 85500.00000 0 24910762.517 4953174.375 2369613.502 10 0 60546 0.00000 0 24447221.433 4749572.501 5535018.395 10 0 60546 900.00000 0 23587747.822 4561014.925 8592948.039 10 0 60546 1800.00000 0 22351048.251 4441207.176 11484090.086 10 0 60546 2700.00000 0 20768294.289 4439533.144 14152415.214 10 0 60546 3600.00000 0 18881919.402 4598749.889 16546256.022 10 0 60546 4500.00000 0 16743964.239 4952971.725 18619298.195 10 0 60546 5400.00000 0 14414039.949 5526028.164 20331465.453 10 0 60546 6300.00000 0 11956994.464 6330264.383 21649682.352 10 0 60546 7200.00000 0 9440378.611 7365834.199 22548501.514 10 0 60546 8100.00000 0 6931816.520 8620515.015 23010584.523 10 0 60546 9000.00000 0 4496388.329 10070052.639 23027028.443 10 0 60546 9900.00000 0 2194132.264 11679022.024 22597532.550 10 0 60546 10800.00000 0 77767.999 13402168.886 21730402.672 10 0 60546 11700.00000 0 -1809266.034 15186177.453 20442393.151 10 0 60546 12600.00000 0 -3434381.525 16971792.048 18758389.175 10 0 60546 13500.00000 0 -4776951.614 18696205.570 16710934.874 10 0 60546 14400.00000 0 -5828919.553 20295616.735 14339615.221 10 0 60546 15300.00000 0 -6594880.071 21707850.573 11690302.438 10 0 60546 16200.00000 0 -7091630.531 22874933.587 8814280.136 10 0 60546 17100.00000 0 -7347210.789 23745516.350 5767260.869 10 0 60546 18000.00000 0 -7399472.044 24277042.006 2608315.067 10 0 60546 18900.00000 0 -7294234.722 24437569.247 -601268.637 10 0 60546 19800.00000 0 -7083112.927 24207172.274 -3799170.068 10 0 60546 20700.00000 0 -6821097.307 23578857.617 -6923248.112 10 0 60546 21600.00000 0 -6563998.748 22558957.740 -9912751.524 10 0 60546 22500.00000 0 -6365861.531 21166983.275 -12709505.893 10 0 60546 23400.00000 0 -6276456.242 19434938.485 -15259052.928 10 0 60546 24300.00000 0 -6338959.617 17406127.315 -17511719.105 10 0 60546 25200.00000 0 -6587920.810 15133498.956 -19423592.084 10 0 60546 26100.00000 0 -7047601.520 12677601.415 -20957385.060 10 0 60546 27000.00000 0 -7730761.683 10104228.263 -22083171.591 10 0 60546 27900.00000 0 -8637943.510 7481856.702 -22778976.017 10 0 60546 28800.00000 0 -9757285.466 4878983.992 -23031207.560 10 0 60546 29700.00000 0 -11064875.299 2361473.534 -22834929.313 10 0 60546 30600.00000 0 -12525628.238 -9978.579 -22193956.696 10 0 60546 31500.00000 0 -14094654.139 -2182150.769 -21120783.318 10 0 60546 32400.00000 0 -15719056.467 -4111280.886 -19636335.660 10 0 60546 33300.00000 0 -17340087.623 -5764646.411 -17769561.400 10 0 60546 34200.00000 0 -18895569.798 -7121674.702 -15556859.581 10 0 60546 35100.00000 0 -20322479.212 -8174538.002 -13041364.024 10 0 60546 36000.00000 0 -21559584.541 -8928209.844 -10272094.391 10 0 60546 36900.00000 0 -22550027.913 -9399982.266 -7302992.062 10 0 60546 37800.00000 0 -23243739.506 -9618466.296 -4191860.412 10 0 60546 38700.00000 0 -23599583.671 -9622119.898 -999230.923 10 0 60546 39600.00000 0 -23587146.065 -9457367.577 2212821.829 10 0 60546 40500.00000 0 -23188086.822 -9176393.054 5381892.397 10 0 60546 41400.00000 0 -22397003.116 -8834699.916 8446459.639 10 0 60546 42300.00000 0 -21221765.504 -8488544.603 11347080.723 10 0 60546 43200.00000 0 -19683314.684 -8192351.076 14027540.598 10 0 60546 44100.00000 0 -17814927.829 -7996216.668 16435934.908 10 0 60546 45000.00000 0 -15660985.835 -7943614.331 18525665.863 10 0 60546 45900.00000 0 -13275293.384 -8069387.760 20256332.781 10 0 60546 46800.00000 0 -10719021.894 -8398123.162 21594501.210 10 0 60546 47700.00000 0 -8058360.674 -8942965.492 22514337.132 10 0 60546 48600.00000 0 -5361973.121 -9704928.279 22998095.308 10 0 60546 49500.00000 0 -2698362.365 -10672725.682 23036453.587 10 0 60546 50400.00000 0 -133254.135 -11823133.844 22628687.646 10 0 60546 51300.00000 0 2272896.369 -13121866.863 21782683.376 10 0 60546 52200.00000 0 4467172.098 -14524931.610 20514786.819 10 0 60546 53100.00000 0 6406143.907 -15980405.905 18849494.240 10 0 60546 54000.00000 0 8057423.095 -17430567.114 16818987.619 10 0 60546 54900.00000 0 9400753.466 -18814283.593 14462523.466 10 0 60546 55800.00000 0 10428598.354 -20069570.243 11825685.534 10 0 60546 56700.00000 0 11146198.726 -21136202.226 8959514.572 10 0 60546 57600.00000 0 11571100.212 -21958277.972 5919530.642 10 0 60546 58500.00000 0 11732168.908 -22486624.107 2764665.931 10 0 60546 59400.00000 0 11668137.188 -22680940.975 -443872.078 10 0 60546 60300.00000 0 11425740.573 -22511597.746 -3643785.499 10 0 60546 61200.00000 0 11057524.136 -21961000.339 -6772896.030 10 0 60546 62100.00000 0 10619411.106 -21024473.012 -9770356.318 10 0 60546 63000.00000 0 10168136.770 -19710614.753 -12577838.672 10 0 60546 63900.00000 0 9758656.701 -18041113.631 -15140677.234 10 0 60546 64800.00000 0 9441639.802 -16050025.171 -17408940.631 10 0 60546 65700.00000 0 9261153.177 -13782543.470 -19338413.388 10 0 60546 66600.00000 0 9252637.944 -11293315.327 -20891466.217 10 0 60546 67500.00000 0 9441262.763 -8644367.043 -22037797.557 10 0 60546 68400.00000 0 9840725.892 -5902729.943 -22755031.374 10 0 60546 69300.00000 0 10452557.499 -3137863.536 -23029159.137 10 0 60546 70200.00000 0 11265952.702 -418983.698 -22854817.048 10 0 60546 71100.00000 0 12258143.192 2187592.678 -22235392.902 10 0 60546 72000.00000 0 13395292.354 4620975.804 -21182960.357 10 0 60546 72900.00000 0 14633876.493 6827998.589 -19718041.866 10 0 60546 73800.00000 0 15922494.011 8765184.211 -17869204.915 10 0 60546 74700.00000 0 17204026.088 10400304.077 -15672499.610 10 0 60546 75600.00000 0 18418057.404 11713461.967 -13170748.896 10 0 60546 76500.00000 0 19503454.282 12697660.280 -10412705.638 10 0 60546 77400.00000 0 20400990.893 13358826.243 -7452093.684 10 0 60546 78300.00000 0 21055912.189 13715298.951 -4346552.317 10 0 60546 79200.00000 0 21420324.895 13796800.885 -1156505.515 10 0 60546 80100.00000 0 21455315.430 13642939.414 2056021.010 10 0 60546 81000.00000 0 21132705.281 13301303.520 5228611.168 10 0 60546 81900.00000 0 20436369.956 12825237.961 8299673.961 10 0 60546 82800.00000 0 19363066.420 12271390.356 11209638.937 10 0 60546 83700.00000 0 17922734.583 11697135.815 13902108.277 10 0 60546 84600.00000 0 16138260.734 11157988.368 16324943.371 10 0 60546 85500.00000 0 14044713.267 10705108.478 18431265.370 10 0 60547 0.00000 0 11688083.120 10383011.309 20180351.118 10 0 60547 900.00000 0 9123580.169 10227571.414 21538409.189 10 0 60547 1800.00000 0 6413559.386 10264407.289 22479220.073 10 0 60547 2700.00000 0 3625158.042 10507712.128 22984632.615 10 0 60547 3600.00000 0 827743.962 10959579.595 23044905.906 10 0 60547 4500.00000 0 -1909721.976 11609852.190 22658891.999 10 0 60547 5400.00000 0 -4521301.323 12436498.501 21834056.335 10 0 60547 6300.00000 0 -6946564.973 13406503.904 20586335.651 10 0 60547 7200.00000 0 -9132850.178 14477238.127 18939835.828 10 0 60547 8100.00000 0 -11037195.699 15598243.486 16926374.829 10 0 60547 9000.00000 0 -12627876.092 16713370.129 14584878.492 10 0 60547 9900.00000 0 -13885472.324 17763170.025 11960639.661 10 0 60547 10800.00000 0 -14803434.779 18687450.407 9104453.602 10 0 60547 11700.00000 0 -15388115.496 19427880.269 6071645.199 10 0 60547 12600.00000 0 -15658268.311 19930540.747 2921005.668 10 0 60547 13500.00000 0 -15644037.770 20148311.994 -286341.384 10 0 60547 14400.00000 0 -15385479.054 20042995.451 -3488123.058 10 0 60547 15300.00000 0 -14930671.059 19587080.994 -6622126.511 10 0 60547 16200.00000 0 -14333502.099 18765082.997 -9627410.850 10 0 60547 17100.00000 0 -13651221.800 17574387.219 -12445497.540 10 0 60547 18000.00000 0 -12941862.929 16025570.871 -15021515.424 10 0 60547 18900.00000 0 -12261642.692 14142180.428 -17305277.317 10 0 60547 19800.00000 0 -11662454.040 11959974.614 -19252266.392 10 0 60547 20700.00000 0 -11189553.944 9525662.680 -20824512.369 10 0 60547 21600.00000 0 -10879547.267 6895189.523 -21991339.758 10 0 60547 22500.00000 0 -10758752.328 4131638.307 -22729973.025 10 0 60547 23400.00000 0 -10842018.099 1302837.659 -23025986.449 10 0 60547 24300.00000 0 -11132043.692 -1521227.142 -22873589.563 10 0 60547 25200.00000 0 -11619229.432 -4271091.139 -22275742.403 10 0 60547 26100.00000 0 -12282066.159 -6880463.266 -21244098.187 10 0 60547 27000.00000 0 -13088046.457 -9288745.923 -19798774.487 10 0 60547 27900.00000 0 -13995059.233 -11443315.653 -17967957.396 10 0 60547 28800.00000 0 -14953208.455 -13301470.049 -15787346.587 10 0 60547 29700.00000 0 -15906978.737 -14831960.203 -13299452.363 10 0 60547 30600.00000 0 -16797655.597 -16016045.559 -10552758.845 10 0 60547 31500.00000 0 -17565897.433 -16848028.340 -7600770.240 10 0 60547 32400.00000 0 -18154349.774 -17335246.774 -4500959.528 10 0 60547 33300.00000 0 -18510190.634 -17497529.312 -1313640.897 10 0 60547 34200.00000 0 -18587498.907 -17366134.888 1899211.198 10 0 60547 35100.00000 0 -18349345.384 -16982225.884 5075172.496 10 0 60547 36000.00000 0 -17769518.063 -16394940.187 8152584.697 10 0 60547 36900.00000 0 -16833809.081 -15659145.315 11071752.353 10 0 60547 37800.00000 0 -15540809.361 -14832970.603 13776097.510 10 0 60547 38700.00000 0 -13902177.889 -13975222.305 16213249.880 10 0 60547 39600.00000 0 -11942374.606 -13142790.774 18336051.966 10 0 60547 40500.00000 0 -9697868.271 -12388158.699 20103460.605 10 0 60547 41400.00000 0 -7215852.301 -11757114.515 21481328.637 10 0 60547 42300.00000 0 -4552521.778 -11286766.113 22443052.908 10 0 60547 43200.00000 0 -1770982.529 -11003937.119 22970077.439 10 0 60547 44100.00000 0 1061121.976 -10924011.856 23052243.258 10 0 60547 45000.00000 0 3874168.867 -11050276.501 22687979.102 10 0 60547 45900.00000 0 6599194.910 -11373783.369 21884329.911 10 0 60547 46800.00000 0 9170508.817 -11873743.833 20656822.749 10 0 60547 47700.00000 0 11528170.320 -12518433.573 19029172.442 10 0 60547 48600.00000 0 13620234.922 -13266572.833 17032831.972 10 0 60547 49500.00000 0 15404672.543 -14069124.696 14706395.265 10 0 60547 50400.00000 0 16850881.385 -14871436.959 12094862.681 10 0 60547 51300.00000 0 17940734.694 -15615638.664 9248782.122 10 0 60547 52200.00000 0 18669117.101 -16243191.414 6223281.067 10 0 60547 53100.00000 0 19043928.166 -16697488.614 3077007.236 10 0 60547 54000.00000 0 19085552.751 -16926393.274 -129002.417 10 0 60547 54900.00000 0 18825820.180 -16884606.988 -3332502.941 10 0 60547 55800.00000 0 18306495.557 -16535769.298 -6471250.000 10 0 60547 56700.00000 0 17577366.523 -15854197.522 -9484212.220 10 0 60547 57600.00000 0 16694005.984 -14826191.929 -12312763.207 10 0 60547 58500.00000 0 15715305.270 -13450849.250 -14901829.359 10 0 60547 59400.00000 0 14700882.179 -11740348.152 -17200970.343 10 0 60547 60300.00000 0 13708473.791 -9719692.549 -19165370.413 10 0 60547 61200.00000 0 12791424.805 -7425921.589 -20756720.436 10 0 60547 62100.00000 0 11996378.120 -4906817.759 -21943972.787 10 0 60547 63000.00000 0 11361265.858 -2219165.801 -22703953.846 10 0 60547 63900.00000 0 10913686.233 573365.737 -23021821.684 10 0 60547 64800.00000 0 10669735.278 3402632.530 -22891359.710 10 0 60547 65700.00000 0 10633343.025 6198612.004 -22315100.314 10 0 60547 66600.00000 0 10796142.250 8892082.164 -21304275.963 10 0 60547 67500.00000 0 11137875.217 11417270.061 -19878598.640 10 0 60547 68400.00000 0 11627320.885 13714359.531 -18065871.965 10 0 60547 69300.00000 0 12223702.855 15731753.620 -15901443.732 10 0 60547 70200.00000 0 12878517.819 17427997.570 -13427509.809 10 0 60547 71100.00000 0 13537706.333 18773282.626 -10692283.435 10 0 60547 72000.00000 0 14144073.158 19750468.626 -7749046.717 10 0 60547 72900.00000 0 14639853.794 20355583.810 -4655103.582 10 0 60547 73800.00000 0 14969317.776 20597782.572 -1470655.428 10 0 60547 74700.00000 0 15081297.788 20498764.690 1742377.690 10 0 60547 75600.00000 0 14931537.073 20091682.437 4921566.571 10 0 60547 76500.00000 0 14484755.647 19419583.626 8005188.816 10 0 60547 77400.00000 0 13716347.921 18533457.855 10933427.078 10 0 60547 78300.00000 0 12613640.284 17489969.733 13649526.172 10 0 60547 79200.00000 0 11176655.857 16348975.517 16100886.805 10 0 60547 80100.00000 0 9418354.488 15170928.141 18240075.235 10 0 60547 81000.00000 0 7364338.057 14014279.734 20025730.237 10 0 60547 81900.00000 0 5052033.273 12932990.181 21423350.963 10 0 60547 82800.00000 0 2529385.772 11974245.351 22405951.796 10 0 60547 83700.00000 0 -146880.848 11176479.409 22954572.862 10 0 60547 84600.00000 0 -2913369.717 10567782.729 23058637.587 10 0 60547 85500.00000 0 -5702393.095 10164760.747 22716151.354 10 0 60548 0.00000 0 -8444535.063 9971890.444 21933738.131 10 0 60548 900.00000 0 -11071291.544 9981400.544 20726514.070 10 0 60548 1800.00000 0 -13517676.334 10173680.307 19117801.391 10 0 60548 2700.00000 0 -15724691.657 10518199.488 17138686.035 10 0 60548 3600.00000 0 -17641558.513 10974901.622 14827427.556 10 0 60548 4500.00000 0 -19227616.665 11496012.726 12228731.098 10 0 60548 5400.00000 0 -20453815.732 12028190.235 9392894.285 10 0 60548 6300.00000 0 -21303735.536 12514922.588 6374844.206 10 0 60548 7200.00000 0 -21774093.071 12899078.967 3233082.105 10 0 60548 8100.00000 0 -21874714.579 13125501.941 28555.371 10 0 60548 9000.00000 0 -21627973.454 13143533.466 -3176521.803 10 0 60548 9900.00000 0 -21067717.016 12909366.906 -6319876.285 10 0 60548 10800.00000 0 -20237726.827 12388124.635 -9340388.774 10 0 60548 11700.00000 0 -19189776.986 11555571.920 -12179287.418 10 0 60548 12600.00000 0 -17981372.055 10399392.864 -14781298.369 10 0 60548 13500.00000 0 -16673260.017 8919972.505 -17095730.100 10 0 60548 14400.00000 0 -15326825.354 7130649.922 -19077469.584 10 0 60548 15300.00000 0 -14001472.582 5057429.584 -20687870.132 10 0 60548 16200.00000 0 -12752111.030 2738161.111 -21895512.902 10 0 60548 17100.00000 0 -11626847.397 221220.127 -22676826.706 10 0 60548 18000.00000 0 -10664983.782 -2436255.873 -23016553.534 10 0 60548 18900.00000 0 -9895405.874 -5170503.887 -22908050.414 10 0 60548 19800.00000 0 -9335429.345 -7913555.404 -22353421.468 10 0 60548 20700.00000 0 -8990152.988 -10595839.334 -21363477.440 10 0 60548 21600.00000 0 -8852345.527 -13148859.377 -19957523.442 10 0 60548 22500.00000 0 -8902870.281 -15507834.110 -18162979.070 10 0 60548 23400.00000 0 -9111628.959 -17614189.552 -16014838.465 10 0 60548 24300.00000 0 -9438983.692 -19417800.166 -13554981.139 10 0 60548 25200.00000 0 -9837596.066 -20878884.903 -10831347.432 10 0 60548 26100.00000 0 -10254604.121 -21969479.457 -7896995.294 10 0 60548 27000.00000 0 -10634043.982 -22674424.025 -4809057.540 10 0 60548 27900.00000 0 -10919412.441 -22991826.324 -1627620.738 10 0 60548 28800.00000 0 -11056260.971 -22932981.921 1585451.516 10 0 60548 29700.00000 0 -10994710.608 -22521757.045 4767727.136 10 0 60548 30600.00000 0 -10691780.686 -21793461.531 7857421.725 10 0 60548 31500.00000 0 -10113432.701 -20793261.136 10794598.187 10 0 60548 32400.00000 0 -9236243.030 -19574197.614 13522326.296 10 0 60548 33300.00000 0 -8048633.988 -18194900.842 15987779.926 10 0 60548 34200.00000 0 -6551611.617 -16717089.897 18143251.194 10 0 60548 35100.00000 0 -4758979.327 -15202968.145 19947062.767 10 0 60548 36000.00000 0 -2697018.376 -13712621.233 21364361.855 10 0 60548 36900.00000 0 -403648.253 -12301526.176 22367781.840 10 0 60548 37800.00000 0 2072898.638 -11018274.558 22937960.096 10 0 60548 38700.00000 0 4675833.810 -9902603.623 23063903.249 10 0 60548 39600.00000 0 7341929.275 -8983816.017 22743193.781 10 0 60548 40500.00000 0 10003907.602 -8279652.769 21982034.633 10 0 60548 41400.00000 0 12593008.021 -7795665.407 20795131.133 10 0 60548 42300.00000 0 15041623.900 -7525112.595 19205412.290 10 0 60548 43200.00000 0 17285903.898 -7449385.141 17243596.209 10 0 60548 44100.00000 0 19268210.251 -7538941.508 14947606.973 10 0 60548 45000.00000 0 20939333.178 -7754714.857 12361853.093 10 0 60548 45900.00000 0 22260369.996 -8049933.032 9536380.155 10 0 60548 46800.00000 0 23204190.968 -8372275.516 6525912.749 10 0 60548 47700.00000 0 23756430.585 -8666277.056 3388803.205 10 0 60548 48600.00000 0 23915962.476 -8875876.900 185906.608 10 0 60548 49500.00000 0 23694837.386 -8947006.011 -3020596.559 10 0 60548 50400.00000 0 23117686.127 -8830102.533 -6168407.451 10 0 60548 51300.00000 0 22220611.814 -8482448.325 -9196321.946 10 0 60548 52200.00000 0 21049617.353 -7870226.466 -12045425.763 10 0 60548 53100.00000 0 19658633.856 -6970211.136 -14660247.678 10 0 60548 54000.00000 0 18107232.763 -5771016.522 -16989847.626 10 0 60548 54900.00000 0 16458117.911 -4273849.928 -18988817.713 10 0 60548 55800.00000 0 14774503.357 -2492735.205 -20618175.814 10 0 60548 56700.00000 0 13117487.556 -454194.984 -21846133.689 10 0 60548 57600.00000 0 11543534.769 1803596.822 -22648724.057 10 0 60548 58500.00000 0 10102169.980 4232158.295 -23010273.930 10 0 60548 59400.00000 0 8833984.498 6774483.561 -22923714.662 10 0 60548 60300.00000 0 7769036.144 9367193.899 -22390722.391 10 0 60548 61200.00000 0 6925711.169 11942966.467 -21421686.006 10 0 60548 62100.00000 0 6310095.306 14433139.468 -20035503.192 10 0 60548 63000.00000 0 5915879.712 16770384.903 -18259208.545 10 0 60548 63900.00000 0 5724804.751 18891337.154 -16127441.184 10 0 60548 64800.00000 0 5707621.668 20739067.384 -13681762.504 10 0 60548 65700.00000 0 5825530.128 22265300.270 -10969837.815 10 0 60548 66600.00000 0 6032029.355 23432280.413 -8044498.437 10 0 60548 67500.00000 0 6275103.037 24214210.754 -4962703.296 10 0 60548 68400.00000 0 6499644.061 24598203.487 -1784421.092 10 0 60548 69300.00000 0 6650015.124 24584704.653 1428544.222 10 0 60548 70200.00000 0 6672635.691 24187375.996 4613760.968 10 0 60548 71100.00000 0 6518484.985 23432440.579 7709386.036 10 0 60548 72000.00000 0 6145414.650 22357521.381 10655365.758 10 0 60548 72900.00000 0 5520173.109 21010023.094 13394597.881 10 0 60548 73800.00000 0 4620056.202 19445126.343 15874032.250 10 0 60548 74700.00000 0 3434114.689 17723479.349 18045689.370 10 0 60548 75600.00000 0 1963867.991 15908684.105 19867578.029 10 0 60548 76500.00000 0 223494.233 14064682.179 21304495.385 10 0 60548 77400.00000 0 -1760511.496 12253148.819 22328695.327 10 0 60548 78300.00000 0 -3950196.882 10531003.116 22920413.563 10 0 60548 79200.00000 0 -6297495.078 8948136.669 23068240.532 10 0 60548 80100.00000 0 -8745995.599 7545453.935 22769335.915 10 0 60548 81000.00000 0 -11233071.233 6353304.291 22029481.251 10 0 60548 81900.00000 0 -13692274.297 5390369.707 20862969.868 10 0 60548 82800.00000 0 -16055904.441 4663053.181 19292336.021 10 0 60548 83700.00000 0 -18257643.095 4165392.564 17347927.838 10 0 60548 84600.00000 0 -20235146.584 3879502.846 15067331.337 10 0 60548 85500.00000 0 -21932491.290 3776528.232 12494655.424 99